Location: Aula-Vintri
(58.3875°N, 22.4322°E)
Time: 02:49:28
(UTC+00:00)

Cosmos 921 Rocket - Pass Details

Date: 13 October 2019
Orbit: 572 x 631 km, 75.8° (Epoch: 17 November)

Event Time Altitude Azimuth Distance (km) Brightness Sun altitude
Rises 17:50:42 0° 200° (SSW) 2,916 6.6 -18.9°
Reaches altitude 10° 17:52:57 10° 199° (SSW) 2,010 5.7 -19.2°
Maximum altitude 17:57:26 77° 114° (ESE) 650 2.9 -19.7°
Drops below altitude 10° 18:01:55 10° 29° (NNE) 2,003 5.6 -20.3°
Sets 18:04:10 0° 28° (NNE) 2,905 6.4 -20.6°
